When you browse on this site, cookies collect data to enhance your experience and personalize the content and advertising you see.
Visit our Privacy Policy to learn more. By continuing to use the site, you agree to this use of cookies and data.
EN

Hourly Weather Baranowce

Today, 21 September, Monday

Time Temperature Precipitation Wind Pressure Humidity
00:00 +13°C° 0 mm 1 mps 752 mmHg 87%
01:00 +12°C° 0 mm 1 mps 752 mmHg 89%
02:00 +12°C° 0 mm 2 mps 753 mmHg 90%
03:00 +10°C° 0 mm 2 mps 752 mmHg 90%
04:00 +11°C° 0 mm 1 mps 752 mmHg 91%
05:00 +11°C° 0 mm 1 mps 752 mmHg 92%
06:00 +12°C° 0 mm 1 mps 752 mmHg 88%
07:00 +12°C° 0 mm 2 mps 752 mmHg 85%
08:00 +13°C° 0 mm 2 mps 752 mmHg 78%
09:00 +15°C° 0 mm 2 mps 752 mmHg 69%
10:00 +17°C° 0 mm 2 mps 752 mmHg 59%
11:00 +19°C° 0 mm 2 mps 752 mmHg 50%
12:00 +20°C° 0 mm 2 mps 752 mmHg 46%
13:00 +21°C° 0 mm 2 mps 752 mmHg 42%
14:00 +23°C° 0 mm 2 mps 752 mmHg 38%
15:00 +23°C° 0 mm 2 mps 751 mmHg 42%
16:00 +23°C° 0 mm 2 mps 751 mmHg 45%
17:00 +22°C° 0 mm 1 mps 750 mmHg 49%
18:00 +19°C° 0 mm 2 mps 750 mmHg 54%
19:00 +18°C° 0 mm 2 mps 750 mmHg 59%
20:00 +16°C° 0 mm 2 mps 750 mmHg 64%
21:00 +15°C° 0 mm 2 mps 750 mmHg 67%
22:00 +15°C° 0 mm 2 mps 750 mmHg 70%
23:00 +14°C° 0 mm 2 mps 750 mmHg 73%

Tomorrow, 22 September, Tuesday

Time Temperature Precipitation Wind Pressure Humidity
00:00 +14°C° 0 mm 2 mps 750 mmHg 75%
01:00 +13°C° 0 mm 2 mps 750 mmHg 77%
02:00 +13°C° 0 mm 2 mps 750 mmHg 79%
03:00 +13°C° 0 mm 2 mps 749 mmHg 80%
04:00 +12°C° 0 mm 2 mps 749 mmHg 81%
05:00 +12°C° 0 mm 2 mps 749 mmHg 82%
06:00 +13°C° 0 mm 2 mps 749 mmHg 78%
07:00 +14°C° 0 mm 2 mps 749 mmHg 74%
08:00 +15°C° 0 mm 2 mps 749 mmHg 70%
09:00 +17°C° 0 mm 2 mps 749 mmHg 63%
10:00 +19°C° 0 mm 2 mps 749 mmHg 55%
11:00 +23°C° 0 mm 2 mps 749 mmHg 48%
12:00 +24°C° 0 mm 3 mps 749 mmHg 45%
13:00 +25°C° 0 mm 3 mps 749 mmHg 42%
14:00 +26°C° 0 mm 3 mps 748 mmHg 39%
15:00 +25°C° 0 mm 2 mps 748 mmHg 43%
16:00 +25°C° 0 mm 2 mps 748 mmHg 46%
17:00 +24°C° 0 mm 2 mps 747 mmHg 50%
18:00 +21°C° 0 mm 2 mps 747 mmHg 54%
19:00 +19°C° 0 mm 2 mps 747 mmHg 58%
20:00 +17°C° 0 mm 2 mps 747 mmHg 62%
21:00 +17°C° 0 mm 2 mps 747 mmHg 64%
22:00 +16°C° 0 mm 2 mps 746 mmHg 67%
23:00 +16°C° 0 mm 2 mps 746 mmHg 69%

Day after tomorrow, 23 September, Wednesday

Time Temperature Precipitation Wind Pressure Humidity
00:00 +14°C° 0 mm 3 mps 746 mmHg 71%
01:00 +14°C° 0 mm 3 mps 746 mmHg 73%
02:00 +13°C° 0 mm 3 mps 746 mmHg 75%
03:00 +13°C° 0 mm 3 mps 745 mmHg 78%
04:00 +13°C° 0 mm 3 mps 745 mmHg 80%
05:00 +12°C° 0 mm 3 mps 745 mmHg 83%
06:00 +13°C° 0 mm 3 mps 745 mmHg 79%
07:00 +14°C° 0 mm 3 mps 744 mmHg 75%
08:00 +16°C° 0 mm 3 mps 744 mmHg 71%
09:00 +18°C° 0 mm 3 mps 744 mmHg 65%
10:00 +20°C° 0 mm 4 mps 744 mmHg 58%
11:00 +22°C° 0 mm 4 mps 744 mmHg 52%
12:00 +23°C° 0 mm 4 mps 744 mmHg 49%
13:00 +25°C° 0 mm 4 mps 744 mmHg 45%
14:00 +26°C° 0 mm 4 mps 743 mmHg 42%
15:00 +26°C° 0 mm 4 mps 743 mmHg 46%
16:00 +25°C° 0 mm 3 mps 743 mmHg 49%
17:00 +24°C° 0 mm 3 mps 742 mmHg 52%
18:00 +22°C° 0 mm 3 mps 742 mmHg 58%
19:00 +20°C° 0 mm 3 mps 743 mmHg 64%
20:00 +18°C° 0 mm 3 mps 743 mmHg 69%
21:00 +17°C° 0 mm 3 mps 743 mmHg 70%
22:00 +17°C° 0 mm 3 mps 742 mmHg 71%
23:00 +17°C° 0 mm 3 mps 742 mmHg 72%

24 September, Thursday

Time Temperature Precipitation Wind Pressure Humidity
00:00 +16°C° 0 mm 3 mps 742 mmHg 72%
01:00 +16°C° 0 mm 3 mps 742 mmHg 72%
02:00 +16°C° 0 mm 3 mps 742 mmHg 72%
03:00 +14°C° 0 mm 3 mps 742 mmHg 73%
04:00 +14°C° 0 mm 3 mps 742 mmHg 74%
05:00 +14°C° 0 mm 3 mps 742 mmHg 75%
06:00 +14°C° 0 mm 3 mps 742 mmHg 73%
07:00 +16°C° 0 mm 3 mps 743 mmHg 70%
08:00 +17°C° 0 mm 3 mps 743 mmHg 68%
09:00 +19°C° 0 mm 3 mps 743 mmHg 62%
10:00 +21°C° 0 mm 3 mps 743 mmHg 56%
11:00 +24°C° 0 mm 3 mps 743 mmHg 50%
12:00 +25°C° 0 mm 3 mps 743 mmHg 47%
13:00 +26°C° 0 mm 3 mps 743 mmHg 45%
14:00 +26°C° 0 mm 3 mps 743 mmHg 42%
15:00 +26°C° 0 mm 3 mps 743 mmHg 46%
16:00 +25°C° 0 mm 3 mps 743 mmHg 50%
17:00 +25°C° 0 mm 2 mps 743 mmHg 53%
18:00 +23°C° 0 mm 2 mps 743 mmHg 58%
19:00 +20°C° 0 mm 2 mps 743 mmHg 63%
20:00 +19°C° 0 mm 2 mps 743 mmHg 68%
21:00 +18°C° 0.2 mm 2 mps 743 mmHg 71%
22:00 +18°C° 0.2 mm 2 mps 744 mmHg 73%
23:00 +18°C° 0.2 mm 2 mps 744 mmHg 75%

25 September, Friday

Time Temperature Precipitation Wind Pressure Humidity
00:00 +17°C° 0.2 mm 2 mps 744 mmHg 80%
01:00 +17°C° 0.2 mm 2 mps 743 mmHg 84%
02:00 +16°C° 0.2 mm 2 mps 743 mmHg 88%
03:00 +16°C° 0 mm 2 mps 743 mmHg 89%
04:00 +16°C° 0 mm 2 mps 743 mmHg 91%
05:00 +16°C° 0 mm 2 mps 743 mmHg 92%
06:00 +16°C° 0 mm 2 mps 743 mmHg 89%
07:00 +17°C° 0 mm 3 mps 743 mmHg 87%
08:00 +17°C° 0 mm 3 mps 743 mmHg 84%
09:00 +19°C° 0 mm 4 mps 742 mmHg 77%
10:00 +21°C° 0 mm 5 mps 742 mmHg 69%
11:00 +23°C° 0 mm 6 mps 742 mmHg 62%
12:00 +24°C° 0 mm 6 mps 742 mmHg 57%
13:00 +26°C° 0 mm 7 mps 741 mmHg 53%
14:00 +27°C° 0 mm 7 mps 741 mmHg 49%
15:00 +26°C° 0 mm 7 mps 740 mmHg 51%
16:00 +26°C° 0 mm 6 mps 740 mmHg 53%
17:00 +25°C° 0 mm 5 mps 740 mmHg 55%
18:00 +25°C° 0 mm 5 mps 739 mmHg 56%
19:00 +23°C° 0 mm 5 mps 739 mmHg 56%
20:00 +23°C° 0 mm 6 mps 739 mmHg 57%
21:00 +22°C° 0 mm 6 mps 739 mmHg 59%
22:00 +21°C° 0 mm 6 mps 739 mmHg 60%
23:00 +21°C° 0 mm 6 mps 738 mmHg 62%

26 September, Saturday

Time Temperature Precipitation Wind Pressure Humidity
00:00 +21°C° 0 mm 5 mps 738 mmHg 61%
01:00 +20°C° 0 mm 5 mps 738 mmHg 60%
02:00 +20°C° 0 mm 5 mps 737 mmHg 59%
03:00 +20°C° 0 mm 4 mps 737 mmHg 60%
04:00 +20°C° 0 mm 4 mps 737 mmHg 61%
05:00 +19°C° 0 mm 4 mps 737 mmHg 61%
06:00 +19°C° 0 mm 4 mps 737 mmHg 64%
07:00 +19°C° 0 mm 4 mps 737 mmHg 66%
08:00 +19°C° 0 mm 4 mps 738 mmHg 68%
09:00 +19°C° 0 mm 4 mps 738 mmHg 70%
10:00 +19°C° 0 mm 4 mps 739 mmHg 72%
11:00 +19°C° 0 mm 4 mps 739 mmHg 74%
12:00 +19°C° 0.2 mm 3 mps 740 mmHg 77%
13:00 +18°C° 0.2 mm 2 mps 740 mmHg 80%
14:00 +17°C° 0.2 mm 2 mps 740 mmHg 84%
15:00 +17°C° 0.1 mm 2 mps 740 mmHg 84%
16:00 +17°C° 0.1 mm 2 mps 740 mmHg 85%
17:00 +17°C° 0.1 mm 2 mps 741 mmHg 85%
18:00 +17°C° 0 mm 2 mps 740 mmHg 88%
19:00 +17°C° 0 mm 2 mps 740 mmHg 90%
20:00 +16°C° 0 mm 2 mps 740 mmHg 93%
21:00 +17°C° 0 mm 3 mps 740 mmHg 91%
22:00 +17°C° 0 mm 3 mps 740 mmHg 88%
23:00 +18°C° 0 mm 4 mps 739 mmHg 85%
Show more